TimeEDT,TemperatureF,Dew PointF,Humidity,Sea Level PressureIn,VisibilityMPH,Wind Direction,Wind SpeedMPH,Gust SpeedMPH,PrecipitationIn,Events,Conditions,WindDirDegrees,DateUTC
12:54 AM,28.9,16.0,58,30.32,10.0,WNW,4.6,-,N/A,,Clear,290,2013-03-28 04:54:00
1:54 AM,30.9,16.0,54,30.32,10.0,WNW,5.8,-,N/A,,Clear,290,2013-03-28 05:54:00
2:54 AM,26.1,17.1,69,30.33,10.0,West,5.8,-,N/A,,Clear,280,2013-03-28 06:54:00
3:54 AM,25.0,17.1,72,30.32,10.0,West,5.8,-,N/A,,Clear,280,2013-03-28 07:54:00
4:54 AM,21.9,15.1,75,30.32,10.0,West,4.6,-,N/A,,Clear,280,2013-03-28 08:54:00
5:54 AM,25.0,18.0,75,30.32,10.0,West,4.6,-,N/A,,Clear,260,2013-03-28 09:54:00
6:54 AM,23.0,17.1,78,30.33,10.0,Calm,Calm,-,N/A,,Clear,0,2013-03-28 10:54:00
7:54 AM,24.1,18.0,77,30.34,10.0,West,4.6,-,N/A,,Clear,260,2013-03-28 11:54:00
8:54 AM,30.9,23.0,72,30.35,10.0,SW,4.6,-,N/A,,Clear,230,2013-03-28 12:54:00
9:54 AM,37.0,27.0,67,30.35,10.0,WNW,9.2,-,N/A,,Clear,290,2013-03-28 13:54:00
10:54 AM,41.0,23.0,49,30.36,10.0,NNW,10.4,-,N/A,,Clear,330,2013-03-28 14:54:00
11:54 AM,44.1,23.0,43,30.36,10.0,NNW,9.2,-,N/A,,Clear,330,2013-03-28 15:54:00
12:54 PM,45.0,19.0,36,30.35,10.0,NW,8.1,-,N/A,,Clear,320,2013-03-28 16:54:00
1:54 PM,46.9,19.9,34,30.35,10.0,NNW,10.4,-,N/A,,Clear,340,2013-03-28 17:54:00
2:54 PM,46.9,19.9,34,30.34,10.0,NNW,11.5,16.1,N/A,,Clear,330,2013-03-28 18:54:00
3:54 PM,46.9,19.9,34,30.33,10.0,NW,8.1,-,N/A,,Clear,310,2013-03-28 19:54:00
4:54 PM,46.9,18.0,32,30.32,10.0,WNW,8.1,19.6,N/A,,Clear,290,2013-03-28 20:54:00
5:54 PM,46.0,17.1,31,30.32,10.0,NW,6.9,-,N/A,,Clear,320,2013-03-28 21:54:00
6:54 PM,45.0,17.1,33,30.31,10.0,NNW,6.9,-,N/A,,Clear,330,2013-03-28 22:54:00
7:54 PM,39.0,18.0,43,30.32,10.0,North,5.8,-,N/A,,Clear,10,2013-03-28 23:54:00
8:54 PM,37.0,18.0,46,30.32,10.0,Calm,Calm,-,N/A,,Clear,0,2013-03-29 00:54:00
9:54 PM,30.9,17.1,57,30.33,10.0,Calm,Calm,-,N/A,,Clear,0,2013-03-29 01:54:00
10:54 PM,30.0,18.0,61,30.33,10.0,Calm,Calm,-,N/A,,Clear,0,2013-03-29 02:54:00
11:54 PM,28.9,19.0,67,30.33,10.0,Calm,Calm,-,N/A,,Clear,0,2013-03-29 03:54:00